Japanese version Home page |
Updated on August 10, 2016 |
|
Orbital ElementsEpoch 2016 Jan. 13.0 TT = JDT 2457400.5 T 2016 Jan. 27.33317 TT MPCW q 2.3505209 (2000.0) P Q n 0.14683144 Peri. 4.43446 -0.52182210 -0.80306268 a 3.5584156 Node 117.26897 +0.77236916 -0.58797090 e 0.3394473 Incl. 18.88753 +0.36214304 +0.09685325 P 6.71 From 294 observations 2003 Mar. 24-2015 Nov. 21, mean residual 0".8. Nongravitational parameters A1 = -4.22, A2 = -0.1593.
|
Finding Charts
|
Magnitudes Graphm1 = 8.8 + 5 log d + 20.0 log r
|
The orbital elements are published on M.P.E.C. 2015-W63.
|